sat.trackr.live / text

‹ back to catalog

STARLINK-35596

NORAD 66086 · 2025-236A

PAYLOAD ACTIVE UNKNOWN

§ Identity

Operator
Country
US
Launch date
2025-10-19
Launch site
AFWTR
Launch vehicle
Mass (kg)
RCS (m²)

Purposes: comms

External: N2YO · Heavens-Above · Gunter

§ Orbital elements

Epoch: 2026-05-25T03:08:21.096672Z

Period
94.10 min
Inclination
53.1576°
Eccentricity
0.0001152
Mean motion
15.30239928 rev/d
Perigee alt
474.3 km
Apogee alt
475.9 km
Semi-major
6,853.2 km
B*
1.4877e-3
RAAN
109.1264°
Arg perigee
116.6570°
Mean anomaly
243.4549°
Rev number
3,464

§ Raw data

STARLINK-355961 66086U 25236A   26145.13079973  .00044018  00000+0  14877-2 0  99962 66086  53.1576 109.1264 0001152 116.6570 243.4549 15.30239928 34643

JSON: /api/v1/satellites/66086 · /tle

For live sub-satellite position, see the globe view (requires WebGL).

§ Visibility from observer

Set your observer location to see the next 7 days of passes ≥ 10°. The values pass through the URL so the page stays shareable.

No JS? Fill the form by hand. The geolocation button needs JavaScript.